Ukiah, CA

5:01 AM PDT on September 25, 2017 (GMT -0700)
Ukiah Municipal

Weather History for KUKI - October, 2011

Change the Weather History Date:

Wednesday, October 26, 2011

  Actual Average Record
Temperature  
Mean Temperature 55 °F 57 °F  
Max Temperature 74 °F 72 °F 93 °F (1917)
Min Temperature 36 °F 42 °F 26 °F (1919)
Degree Days  
Heating Degree Days 10 8  
Month to date heating degree days 84 123  
Since 1 July heating degree days 87 156  
Cooling Degree Days 0 0  
Month to date cooling degree days 19 19  
Year to date cooling degree days 895 832  
Growing Degree Days 5 (Base 50)    
Moisture  
Dew Point 36 °F    
Average Humidity 53    
Maximum Humidity 93    
Minimum Humidity 12    
Precipitation  
Precipitation T in 0.13 in 1.68 in (1991)
Month to date precipitation 3.59 1.39  
Year to date precipitation 25.65 25.36  
Since 1 July precipitation 3.61  
Snow  
Snow 0.00 in - - ()
Month to date snowfall 0.0  
Since 1 July snowfall 0.0  
Since 1 September snowfall 0.0  
Snow Depth 0.00 in    
Sea Level Pressure  
Sea Level Pressure 30.11 in    
Wind  
Wind Speed 1 mph (WNW)    
Max Wind Speed 4 mph    
Max Gust Speed -    
Visibility 10 miles    
Events      
T = Trace of Precipitation, MM = Missing Value Source: NWS Daily Summary

Daily Weather History Graph

Daily Weather History Graph

Search for Another Location

Airport or City:

Trip Planner

Search our weather history database for the weather conditions in past years. The results will help you decide how hot, cold, wet, or windy it might be!

Date:

Astronomy

Oct. 26, 2011 Rise Set
Actual Time 7:33 AM PDT 6:19 PM PDT
Civil Twilight 7:06 AM PDT 6:46 PM PDT
Nautical Twilight 6:34 AM PDT 7:17 PM PDT
Astronomical Twilight 6:03 AM PDT 7:48 PM PDT
Moon 7:27 AM PDT (10/26) 6:06 PM PDT (10/26)
Length of Visible Light 11h 40m
Length of Day
10h 45m
Waning Crescent, 0% of the Moon is Illuminated
Oct 26
Waning Crescent
Oct 26
New
Nov 2
First Quarter
Nov 10
Full
Nov 18
Last Quarter

Hourly Weather History & Observations

Time (PDT) Temp. Windchill Dew Point Humidity Pressure Visibility Wind Dir Wind Speed Gust Speed Precip Events Conditions
12:56 AM 46.9 °F - 44.1 °F 90% 30.11 in 10.0 mi Calm Calm - N/A   Clear
1:56 AM 45.0 °F - 42.1 °F 90% 30.12 in 10.0 mi Calm Calm - N/A   Clear
2:56 AM 41.0 °F - 39.0 °F 93% 30.12 in 10.0 mi Calm Calm - N/A   Clear
3:56 AM 42.1 °F - 39.9 °F 92% 30.12 in 10.0 mi Calm Calm - N/A   Clear
4:56 AM 41.0 °F - 37.9 °F 89% 30.12 in 10.0 mi Calm Calm - N/A   Clear
5:56 AM 39.0 °F - 36.0 °F 89% 30.14 in 10.0 mi Calm Calm - N/A   Clear
6:56 AM 37.0 °F - 35.1 °F 93% 30.15 in 10.0 mi Calm Calm - N/A   Clear
7:56 AM 37.0 °F - 35.1 °F 93% 30.17 in 10.0 mi Calm Calm - N/A   Clear
8:56 AM 42.8 °F - 37.4 °F 81% 30.18 in 10.0 mi Calm Calm - N/A   Clear
9:56 AM 46.9 °F - 37.9 °F 71% 30.17 in 10.0 mi Calm Calm - 0.00 in   Clear
10:56 AM 53.1 °F - 36.0 °F 52% 30.16 in 10.0 mi Calm Calm - N/A   Clear
12:56 PM 64.0 °F - 34.0 °F 33% 30.13 in 10.0 mi Variable 3.5 mph - N/A   Clear
1:56 PM 68.0 °F - 28.0 °F 22% 30.09 in 10.0 mi Calm Calm - N/A   Clear
2:56 PM 72.0 °F - 18.0 °F 13% 30.06 in 10.0 mi Calm Calm - N/A   Clear
3:56 PM 73.0 °F - 18.0 °F 12% 30.05 in 10.0 mi WNW 3.5 mph - N/A   Clear
4:56 PM 68.0 °F - 30.9 °F 25% 30.04 in 10.0 mi West 3.5 mph - N/A   Clear
5:56 PM 62.1 °F - 33.1 °F 34% 30.04 in 10.0 mi Calm Calm - N/A   Clear
6:56 PM 57.9 °F - 37.9 °F 47% 30.06 in 10.0 mi Calm Calm - N/A   Clear
7:56 PM 51.1 °F - 42.1 °F 71% 30.07 in 10.0 mi Calm Calm - N/A   Clear
8:56 PM 48.9 °F - 42.1 °F 77% 30.08 in 10.0 mi Calm Calm - N/A   Clear
9:56 PM 48.0 °F - 39.9 °F 74% 30.08 in 10.0 mi Calm Calm - N/A   Clear
10:56 PM 44.6 °F - 39.2 °F 81% 30.09 in 10.0 mi Calm Calm - N/A   Clear
11:56 PM 46.0 °F 44.8 °F 39.9 °F 79% 30.09 in 10.0 mi WNW 3.5 mph - N/A   Clear